• In Uzbekistan
  • List of Countries
  • For 7 days
  • Water Temperature
  • Satellite Maps
  • Weather Map
  • Weather Widgets
  • user-avatar
    Login

    Hourly Weather Senaki

    Today, 19 August, Saturday

    Time Temperature Precipitation Wind Pressure Humidity
    00:00 +25°C° 0 mm 2 mps 758 mmHg 69%
    01:00 +25°C° 0 mm 2 mps 758 mmHg 66%
    02:00 +25°C° 0 mm 2 mps 758 mmHg 63%
    03:00 +25°C° 0 mm 2 mps 758 mmHg 61%
    04:00 +25°C° 0 mm 2 mps 758 mmHg 59%
    05:00 +25°C° 0 mm 2 mps 758 mmHg 57%
    06:00 +25°C° 0 mm 2 mps 758 mmHg 55%
    07:00 +27°C° 0 mm 2 mps 758 mmHg 50%
    08:00 +30°C° 0 mm 2 mps 758 mmHg 46%
    09:00 +32°C° 0 mm 2 mps 758 mmHg 41%
    10:00 +35°C° 0 mm 2 mps 758 mmHg 38%
    11:00 +36°C° 0 mm 2 mps 758 mmHg 36%
    12:00 +38°C° 0 mm 2 mps 757 mmHg 34%
    13:00 +38°C° 0 mm 2 mps 757 mmHg 34%
    14:00 +38°C° 0 mm 3 mps 757 mmHg 35%
    15:00 +38°C° 0 mm 3 mps 757 mmHg 36%
    16:00 +36°C° 0 mm 3 mps 757 mmHg 45%
    17:00 +34°C° 0 mm 2 mps 757 mmHg 54%
    18:00 +31°C° 0 mm 2 mps 757 mmHg 63%
    19:00 +29°C° 0 mm 2 mps 758 mmHg 67%
    20:00 +28°C° 0 mm 2 mps 758 mmHg 72%
    21:00 +26°C° 0 mm 1 mps 759 mmHg 76%
    22:00 +26°C° 0 mm 1 mps 759 mmHg 75%
    23:00 +26°C° 0 mm 2 mps 759 mmHg 73%

    Tomorrow, 20 August, Sunday

    Time Temperature Precipitation Wind Pressure Humidity
    00:00 +25°C° 0 mm 2 mps 759 mmHg 71%
    01:00 +25°C° 0 mm 2 mps 759 mmHg 68%
    02:00 +25°C° 0 mm 2 mps 759 mmHg 65%
    03:00 +25°C° 0 mm 2 mps 759 mmHg 62%
    04:00 +25°C° 0 mm 2 mps 759 mmHg 60%
    05:00 +25°C° 0 mm 2 mps 759 mmHg 59%
    06:00 +25°C° 0 mm 2 mps 759 mmHg 57%
    07:00 +27°C° 0 mm 2 mps 758 mmHg 51%
    08:00 +30°C° 0 mm 1 mps 758 mmHg 44%
    09:00 +32°C° 0 mm 1 mps 758 mmHg 38%
    10:00 +35°C° 0 mm 2 mps 757 mmHg 35%
    11:00 +37°C° 0 mm 2 mps 757 mmHg 31%
    12:00 +38°C° 0 mm 2 mps 757 mmHg 28%
    13:00 +38°C° 0 mm 2 mps 757 mmHg 30%
    14:00 +38°C° 0 mm 3 mps 756 mmHg 32%
    15:00 +37°C° 0 mm 3 mps 756 mmHg 34%
    16:00 +35°C° 0 mm 3 mps 756 mmHg 43%
    17:00 +34°C° 0 mm 2 mps 756 mmHg 53%
    18:00 +31°C° 0 mm 2 mps 756 mmHg 63%
    19:00 +29°C° 0 mm 2 mps 757 mmHg 67%
    20:00 +28°C° 0 mm 1 mps 757 mmHg 71%
    21:00 +26°C° 0 mm 1 mps 758 mmHg 74%
    22:00 +26°C° 0 mm 1 mps 758 mmHg 70%
    23:00 +26°C° 0 mm 2 mps 758 mmHg 65%

    Day after tomorrow, 21 August, Monday

    Time Temperature Precipitation Wind Pressure Humidity
    00:00 +25°C° 0 mm 2 mps 758 mmHg 61%
    01:00 +25°C° 0 mm 2 mps 758 mmHg 57%
    02:00 +25°C° 0 mm 2 mps 758 mmHg 53%
    03:00 +25°C° 0 mm 2 mps 758 mmHg 49%
    04:00 +25°C° 0 mm 2 mps 757 mmHg 48%
    05:00 +25°C° 0 mm 2 mps 757 mmHg 47%
    06:00 +25°C° 0 mm 2 mps 757 mmHg 46%
    07:00 +28°C° 0 mm 2 mps 757 mmHg 42%
    08:00 +30°C° 0 mm 2 mps 756 mmHg 38%
    09:00 +34°C° 0 mm 2 mps 756 mmHg 33%
    10:00 +36°C° 0 mm 2 mps 755 mmHg 30%
    11:00 +38°C° 0 mm 2 mps 755 mmHg 27%
    12:00 +40°C° 0 mm 2 mps 755 mmHg 24%
    13:00 +40°C° 0 mm 2 mps 754 mmHg 24%
    14:00 +41°C° 0 mm 2 mps 754 mmHg 23%
    15:00 +41°C° 0 mm 2 mps 753 mmHg 23%
    16:00 +39°C° 0 mm 2 mps 753 mmHg 30%
    17:00 +37°C° 0 mm 2 mps 753 mmHg 38%
    18:00 +34°C° 0 mm 1 mps 753 mmHg 45%
    19:00 +34°C° 0 mm 2 mps 753 mmHg 43%
    20:00 +31°C° 0 mm 2 mps 754 mmHg 41%
    21:00 +30°C° 0 mm 2 mps 754 mmHg 39%
    22:00 +29°C° 0 mm 2 mps 754 mmHg 38%
    23:00 +29°C° 0 mm 2 mps 754 mmHg 36%

    22 August, Tuesday

    Time Temperature Precipitation Wind Pressure Humidity
    00:00 +28°C° 0 mm 2 mps 754 mmHg 35%
    01:00 +28°C° 0 mm 2 mps 754 mmHg 35%
    02:00 +27°C° 0 mm 2 mps 754 mmHg 35%
    03:00 +27°C° 0 mm 2 mps 754 mmHg 35%
    04:00 +27°C° 0 mm 2 mps 755 mmHg 37%
    05:00 +26°C° 0 mm 2 mps 755 mmHg 39%
    06:00 +26°C° 0 mm 2 mps 755 mmHg 41%
    07:00 +28°C° 0 mm 2 mps 755 mmHg 40%
    08:00 +30°C° 0 mm 2 mps 755 mmHg 39%
    09:00 +34°C° 0 mm 2 mps 755 mmHg 38%
    10:00 +35°C° 0 mm 2 mps 755 mmHg 37%
    11:00 +36°C° 0 mm 2 mps 754 mmHg 36%
    12:00 +37°C° 0 mm 2 mps 754 mmHg 36%
    13:00 +37°C° 0 mm 3 mps 754 mmHg 39%
    14:00 +36°C° 0 mm 3 mps 754 mmHg 43%
    15:00 +36°C° 0 mm 3 mps 754 mmHg 47%
    16:00 +35°C° 0 mm 3 mps 754 mmHg 56%
    17:00 +33°C° 0 mm 3 mps 754 mmHg 65%
    18:00 +31°C° 0 mm 3 mps 755 mmHg 74%
    19:00 +29°C° 0 mm 2 mps 755 mmHg 81%
    20:00 +28°C° 0 mm 1 mps 756 mmHg 87%
    21:00 +26°C° 0 mm 1 mps 756 mmHg 94%
    22:00 +26°C° 0.2 mm 1 mps 756 mmHg 93%
    23:00 +26°C° 0.2 mm 1 mps 757 mmHg 92%

    23 August, Wednesday

    Time Temperature Precipitation Wind Pressure Humidity
    00:00 +26°C° 0.2 mm 1 mps 757 mmHg 91%
    01:00 +26°C° 0.4 mm 1 mps 757 mmHg 88%
    02:00 +26°C° 0.4 mm 1 mps 757 mmHg 85%
    03:00 +25°C° 0.4 mm 1 mps 757 mmHg 82%
    04:00 +25°C° 0.3 mm 1 mps 757 mmHg 80%
    05:00 +25°C° 0.3 mm 1 mps 757 mmHg 78%
    06:00 +25°C° 0.3 mm 1 mps 758 mmHg 76%
    07:00 +27°C° 0.4 mm 1 mps 758 mmHg 73%
    08:00 +28°C° 0.4 mm 1 mps 758 mmHg 70%
    09:00 +30°C° 0.4 mm 1 mps 758 mmHg 67%
    10:00 +30°C° 0.6 mm 2 mps 758 mmHg 65%
    11:00 +31°C° 0.6 mm 3 mps 758 mmHg 63%
    12:00 +33°C° 0.6 mm 3 mps 758 mmHg 61%
    13:00 +31°C° 1.1 mm 3 mps 758 mmHg 66%
    14:00 +32°C° 1.1 mm 4 mps 758 mmHg 70%
    15:00 +30°C° 1.1 mm 4 mps 759 mmHg 75%
    16:00 +29°C° 0.9 mm 3 mps 759 mmHg 79%
    17:00 +28°C° 0.9 mm 3 mps 760 mmHg 83%
    18:00 +27°C° 0.9 mm 3 mps 761 mmHg 86%
    19:00 +26°C° 0.8 mm 2 mps 761 mmHg 89%
    20:00 +25°C° 0.8 mm 2 mps 762 mmHg 92%
    21:00 +24°C° 0.8 mm 1 mps 762 mmHg 95%
    22:00 +24°C° 0.5 mm 1 mps 762 mmHg 95%
    23:00 +24°C° 0.5 mm 1 mps 762 mmHg 94%

    24 August, Thursday

    Time Temperature Precipitation Wind Pressure Humidity
    00:00 +24°C° 0.5 mm 1 mps 762 mmHg 94%
    01:00 +24°C° 0.2 mm 1 mps 762 mmHg 94%
    02:00 +24°C° 0.2 mm 2 mps 762 mmHg 93%
    03:00 +23°C° 0.2 mm 2 mps 762 mmHg 93%
    04:00 +23°C° 0 mm 2 mps 762 mmHg 92%
    05:00 +23°C° 0 mm 2 mps 762 mmHg 92%
    06:00 +23°C° 0 mm 2 mps 762 mmHg 91%
    07:00 +26°C° 0 mm 2 mps 762 mmHg 82%
    08:00 +28°C° 0 mm 1 mps 761 mmHg 73%
    09:00 +30°C° 0 mm 1 mps 761 mmHg 64%
    10:00 +31°C° 0 mm 2 mps 761 mmHg 60%
    11:00 +32°C° 0 mm 2 mps 761 mmHg 56%
    12:00 +34°C° 0 mm 2 mps 760 mmHg 51%
    13:00 +34°C° 0 mm 3 mps 760 mmHg 54%
    14:00 +34°C° 0 mm 3 mps 760 mmHg 56%
    15:00 +33°C° 0 mm 3 mps 760 mmHg 59%
    16:00 +31°C° 0 mm 3 mps 761 mmHg 64%
    17:00 +30°C° 0 mm 3 mps 761 mmHg 70%
    18:00 +29°C° 0 mm 2 mps 761 mmHg 76%
    19:00 +27°C° 0 mm 2 mps 762 mmHg 81%
    20:00 +26°C° 0 mm 1 mps 762 mmHg 86%
    21:00 +25°C° 0 mm 1 mps 763 mmHg 91%
    22:00 +25°C° 0 mm 1 mps 763 mmHg 90%
    23:00 +25°C° 0 mm 1 mps 763 mmHg 89%
    Show more